Weather in Tangerang

Indonesia     6°17′35″S   106°42′41″E
temp.,
°C
wind,
m/s
gust,
m/s
humid.,
%
clouds,
%
prec.,
mm/h
press.,
hPa
HPBL,
m
13 may, thu
thu1301:00+28se237315 0.6 1007322
04:00+27se127568 0.0 1006207
07:00+28sse117453 0.0 1008246
10:00+31ene125936 0.0 10081042
13:00+34nne334895 0.0 10051753
16:00+31nne5560100 0.0 1005741
19:00+29ne457161 0.8 1007359
22:00+29ese3576100 0.8 1008470
14 may, fri
fri1401:00+28ese3579100 0.8 1007412
04:00+27ese248254 0.1 1006261
07:00+27se237944 0.1 1007270
10:00+31e22594 0.0 1007964
13:00+34nne234748 0.0 10041677
16:00+31nne5562100 0.1 1004674
19:00+30ene237199 3.1 1007600
22:00+29e247549 1.1 1008411
15 may, sat
sat1501:00+28ese127841 1.3 1006236
04:00+27se1280100 0.6 1005133
07:00+28ssw117899 3.1 100782
10:00+31nne226463 1.5 10071008
13:00+32nne3259100 2.2 10051060
16:00+31nne436359 1.4 1004853
19:00+29ne347744 3.6 1006285
22:00+28e23785 2.4 1008136
16 may, sun
sun1601:00+27ese128213 3.3 100792
04:00+27s118496 0.0 100680
07:00+27wsw1180100 0.0 1007197
10:00+31nnw116295 0.9 1008892
13:00+33nne325581 1.4 10051500
16:00+31n226423 1.3 1005835
19:00+28ne227799 5.0 1007159
22:00+28se127880 4.1 100962
17 may, mon
mon1701:00+27se228058 5.7 100895
04:00+27sse128366 0.1 100792
07:00+27s118048 0.1 1008154
10:00+31e11609 0.0 1009933
13:00+33n225052 0.0 10061470
16:00+32n435551 0.0 1005924
19:00+30nnw236373 0.1 1008809
22:00+29wnw127195 0.6 1009422